CXA2855 ZSSS-ZYTL

Flight info

Callsign CXA2855
Flight time N/A
Altitude 25600
Route POMOK G330 PIMOL A593 LAGAL W178 RUXEL DCT GURIL DCT MABEB DCT XDX DCT URBAD W172 IGDEG W173 NIXEP
Aircraft A20N/M-SDE2E3FGHIRWXY/LB1

Departure

Time 2026-04-27 03:24
Airport Shanghai Hongqiao International Airport (ZSSS)

Arrival

Time N/A
Airport Dalian Zhoushuizi International Airport (ZYTL)
Time Latitude Longitude Altitude Speed Heading
2026-04-27 02:52 31.19273 121.32480 15 ft 0 kts 292°
2026-04-27 03:09 31.19273 121.32481 15 ft 0 kts 292°
2026-04-27 03:11 31.19271 121.32484 15 ft 2 kts 292°
2026-04-27 03:11 31.19266 121.32501 15 ft 2 kts 292°
2026-04-27 03:11 31.19260 121.32516 15 ft 2 kts 292°
2026-04-27 03:12 31.19254 121.32533 14 ft 2 kts 292°
2026-04-27 03:12 31.19248 121.32549 15 ft 2 kts 307°
2026-04-27 03:12 31.19237 121.32561 15 ft 2 kts 328°
2026-04-27 03:12 31.19223 121.32568 14 ft 2 kts 348°
2026-04-27 03:13 31.19208 121.32571 14 ft 2 kts 349°
2026-04-27 03:13 31.19194 121.32574 15 ft 2 kts 355°
2026-04-27 03:13 31.19187 121.32574 14 ft 0 kts 358°
2026-04-27 03:13 31.19186 121.32574 14 ft 0 kts 358°
2026-04-27 03:15 31.19191 121.32574 14 ft 1 kts 358°
2026-04-27 03:16 31.19208 121.32578 14 ft 3 kts 25°
2026-04-27 03:16 31.19226 121.32609 14 ft 5 kts 76°
2026-04-27 03:16 31.19230 121.32664 14 ft 7 kts 87°
2026-04-27 03:16 31.19233 121.32734 14 ft 9 kts 87°
2026-04-27 03:17 31.19236 121.32820 14 ft 11 kts 87°
2026-04-27 03:17 31.19240 121.32912 14 ft 11 kts 87°
2026-04-27 03:17 31.19243 121.33008 15 ft 9 kts 87°
2026-04-27 03:17 31.19257 121.33072 14 ft 8 kts 41°
2026-04-27 03:18 31.19321 121.33081 14 ft 10 kts 357°
2026-04-27 03:18 31.19395 121.33077 14 ft 11 kts 357°
2026-04-27 03:18 31.19477 121.33073 14 ft 12 kts 357°
2026-04-27 03:18 31.19566 121.33068 14 ft 13 kts 357°
2026-04-27 03:19 31.19669 121.33063 14 ft 15 kts 357°
2026-04-27 03:19 31.19787 121.33055 14 ft 18 kts 357°
2026-04-27 03:19 31.19920 121.33048 14 ft 20 kts 357°
2026-04-27 03:19 31.20065 121.33041 14 ft 21 kts 357°
2026-04-27 03:20 31.20213 121.33032 14 ft 20 kts 357°
2026-04-27 03:20 31.20355 121.33025 14 ft 20 kts 357°
2026-04-27 03:20 31.20496 121.33017 14 ft 20 kts 357°
2026-04-27 03:20 31.20637 121.33009 14 ft 20 kts 356°
2026-04-27 03:21 31.20776 121.33002 14 ft 19 kts 357°
2026-04-27 03:21 31.20914 121.32994 14 ft 19 kts 357°
2026-04-27 03:21 31.21016 121.32989 14 ft 10 kts 357°
2026-04-27 03:21 31.21072 121.32986 14 ft 6 kts 357°
2026-04-27 03:22 31.21123 121.32984 14 ft 7 kts
2026-04-27 03:22 31.21154 121.33029 14 ft 8 kts 81°
2026-04-27 03:22 31.21157 121.33099 14 ft 9 kts 87°
2026-04-27 03:22 31.21146 121.33159 14 ft 7 kts 134°
2026-04-27 03:23 31.21107 121.33176 14 ft 0 kts 176°
2026-04-27 03:23 31.21105 121.33176 14 ft 0 kts 176°
2026-04-27 03:23 31.20930 121.33186 15 ft 60 kts 177°
2026-04-27 03:24 31.20277 121.33220 15 ft 124 kts 177°
2026-04-27 03:24 31.19249 121.33275 125 ft 163 kts 178°
2026-04-27 03:24 31.18106 121.33333 662 ft 167 kts 177°
2026-04-27 03:24 31.16935 121.33395 1310 ft 170 kts 177°
2026-04-27 03:25 31.15762 121.33453 1966 ft 171 kts 177°
2026-04-27 03:25 31.14586 121.33514 2544 ft 171 kts 178°
2026-04-27 03:25 31.13391 121.33574 3092 ft 173 kts 178°
2026-04-27 03:25 31.12152 121.33636 3519 ft 185 kts 179°
2026-04-27 03:26 31.10793 121.33699 3899 ft 202 kts 179°
2026-04-27 03:26 31.09343 121.33768 4305 ft 218 kts 179°
2026-04-27 03:26 31.07751 121.33839 4674 ft 239 kts 182°
2026-04-27 03:26 31.06091 121.33441 5108 ft 253 kts 208°
2026-04-27 03:27 31.04712 121.32117 5621 ft 266 kts 236°
2026-04-27 03:27 31.04012 121.30122 6284 ft 270 kts 264°
2026-04-27 03:27 31.04162 121.27978 7144 ft 270 kts 283°
2026-04-27 03:27 31.04580 121.25858 7980 ft 273 kts 283°
2026-04-27 03:28 31.04988 121.23703 8823 ft 276 kts 282°
2026-04-27 03:28 31.05396 121.21497 9675 ft 279 kts 282°
2026-04-27 03:28 31.05796 121.19318 10469 ft 282 kts 282°
2026-04-27 03:28 31.06250 121.17030 10939 ft 297 kts 288°
2026-04-27 03:29 31.07280 121.14844 11264 ft 318 kts 308°
2026-04-27 03:29 31.09024 121.13166 11637 ft 338 kts 329°
2026-04-27 03:29 31.11297 121.12325 12302 ft 351 kts 349°
2026-04-27 03:29 31.13743 121.12163 13042 ft 355 kts 353°
2026-04-27 03:30 31.16215 121.12044 13727 ft 359 kts 353°
2026-04-27 03:30 31.18730 121.11912 14426 ft 363 kts 352°
2026-04-27 03:30 31.21250 121.11771 15088 ft 367 kts 352°
2026-04-27 03:30 31.23796 121.11628 15683 ft 372 kts 352°
2026-04-27 03:31 31.26405 121.11481 16350 ft 375 kts 352°
2026-04-27 03:31 31.29007 121.11332 16964 ft 379 kts 352°
2026-04-27 03:31 31.31652 121.11181 17555 ft 383 kts 351°
2026-04-27 03:31 31.34345 121.11050 18154 ft 388 kts 353°
2026-04-27 03:32 31.37065 121.11089 18724 ft 395 kts 356°
2026-04-27 03:32 31.39823 121.11260 19301 ft 398 kts 357°
2026-04-27 03:32 31.42540 121.11405 19873 ft 398 kts 353°
2026-04-27 03:32 31.45316 121.11042 20419 ft 394 kts 342°
2026-04-27 03:33 31.47925 121.10113 20943 ft 390 kts 332°
2026-04-27 03:33 31.50405 121.08843 21475 ft 391 kts 329°
2026-04-27 03:33 31.52893 121.07500 21945 ft 396 kts 329°
2026-04-27 03:33 31.55405 121.06143 22422 ft 399 kts 330°
2026-04-27 03:34 31.57922 121.04793 22960 ft 401 kts 329°
2026-04-27 03:34 31.60463 121.03435 23475 ft 403 kts 329°
2026-04-27 03:34 31.63030 121.02066 23943 ft 406 kts 329°
2026-04-27 03:34 31.65637 121.00674 24395 ft 409 kts 329°
2026-04-27 03:35 31.68226 120.99292 24904 ft 410 kts 329°
2026-04-27 03:35 31.70814 120.97911 25347 ft 411 kts 329°
2026-04-27 03:35 31.73414 120.96523 25527 ft 412 kts 329°
2026-04-27 03:35 31.76034 120.95124 25526 ft 412 kts 329°
2026-04-27 03:36 31.78621 120.93745 25534 ft 411 kts 329°
2026-04-27 03:36 31.81232 120.92348 25540 ft 412 kts 329°
2026-04-27 03:36 31.83840 120.90954 25537 ft 411 kts 329°
2026-04-27 03:36 31.86466 120.89551 25539 ft 411 kts 329°
2026-04-27 03:37 31.89060 120.88162 25538 ft 411 kts 329°
2026-04-27 03:37 31.91662 120.86769 25539 ft 411 kts 328°
2026-04-27 03:37 31.94246 120.85381 25539 ft 410 kts 328°
2026-04-27 03:37 31.96875 120.83970 25540 ft 409 kts 328°
2026-04-27 03:38 31.99440 120.82588 25542 ft 410 kts 329°
2026-04-27 03:38 32.02045 120.81186 25541 ft 410 kts 329°
2026-04-27 03:38 32.04666 120.79778 25546 ft 410 kts 329°
2026-04-27 03:38 32.07245 120.78388 25544 ft 409 kts 329°
2026-04-27 03:39 32.09840 120.76991 25544 ft 409 kts 329°
2026-04-27 03:39 32.12402 120.75540 25537 ft 403 kts 323°
2026-04-27 03:39 32.14525 120.73530 25542 ft 392 kts 307°
2026-04-27 03:39 32.16083 120.70924 25543 ft 384 kts 294°
2026-04-27 03:40 32.16987 120.68003 25545 ft 379 kts 281°
2026-04-27 03:40 32.17338 120.64919 25551 ft 380 kts 275°
2026-04-27 03:40 32.17607 120.61826 25546 ft 380 kts 275°
2026-04-27 03:40 32.17873 120.58720 25536 ft 380 kts 275°
2026-04-27 03:41 32.18132 120.55634 25539 ft 381 kts 275°
2026-04-27 03:41 32.18393 120.52530 25539 ft 382 kts 275°
2026-04-27 03:41 32.18648 120.49442 25538 ft 382 kts 275°
2026-04-27 03:41 32.18911 120.46296 25531 ft 382 kts 275°
2026-04-27 03:42 32.19165 120.43213 25537 ft 383 kts 275°
2026-04-27 03:42 32.19421 120.40099 25531 ft 381 kts 275°
2026-04-27 03:42 32.19677 120.36983 25528 ft 380 kts 275°
2026-04-27 03:42 32.19933 120.33868 25528 ft 381 kts 275°
2026-04-27 03:43 32.20184 120.30797 25521 ft 382 kts 274°
2026-04-27 03:43 32.20437 120.27681 25522 ft 382 kts 274°
2026-04-27 03:43 32.20690 120.24562 25524 ft 382 kts 274°
2026-04-27 03:43 32.20942 120.21443 25517 ft 381 kts 275°
2026-04-27 03:44 32.21196 120.18317 25522 ft 383 kts 275°
2026-04-27 03:44 32.21452 120.15198 25519 ft 383 kts 275°
2026-04-27 03:44 32.21703 120.12096 25521 ft 383 kts 275°
2026-04-27 03:44 32.21955 120.08966 25520 ft 384 kts 275°
2026-04-27 03:45 32.22208 120.05854 25516 ft 383 kts 275°
2026-04-27 03:45 32.22463 120.02698 25516 ft 383 kts 275°
2026-04-27 03:45 32.22713 119.99570 25518 ft 383 kts 275°
2026-04-27 03:45 32.22963 119.96435 25516 ft 383 kts 275°
2026-04-27 03:46 32.23214 119.93311 25518 ft 383 kts 275°
2026-04-27 03:46 32.23460 119.90209 25518 ft 383 kts 275°
2026-04-27 03:46 32.23708 119.87089 25515 ft 382 kts 275°
2026-04-27 03:46 32.23955 119.83963 25513 ft 382 kts 275°
2026-04-27 03:47 32.24239 119.80848 25510 ft 383 kts 279°
2026-04-27 03:47 32.25050 119.77857 25512 ft 386 kts 292°
2026-04-27 03:47 32.26467 119.75184 25509 ft 392 kts 305°
2026-04-27 03:47 32.28472 119.72894 25510 ft 401 kts 317°
2026-04-27 03:48 32.30695 119.70950 25518 ft 402 kts 318°
2026-04-27 03:48 32.32954 119.69021 25517 ft 401 kts 319°
2026-04-27 03:48 32.35236 119.67075 25517 ft 401 kts 319°
2026-04-27 03:48 32.37492 119.65153 25518 ft 400 kts 318°
2026-04-27 03:49 32.39744 119.63232 25517 ft 400 kts 319°
2026-04-27 03:49 32.42006 119.61299 25519 ft 401 kts 318°
2026-04-27 03:49 32.44250 119.59380 25521 ft 401 kts 319°
2026-04-27 03:49 32.46499 119.57458 25520 ft 400 kts 318°
2026-04-27 03:50 32.48769 119.55505 25518 ft 400 kts 318°
2026-04-27 03:50 32.51011 119.53565 25520 ft 401 kts 318°
2026-04-27 03:50 32.53251 119.51630 25520 ft 401 kts 318°
2026-04-27 03:50 32.55512 119.49676 25518 ft 400 kts 318°
2026-04-27 03:51 32.57774 119.47716 25517 ft 399 kts 318°
2026-04-27 03:51 32.60016 119.45777 25518 ft 400 kts 318°
2026-04-27 03:51 32.62253 119.43837 25518 ft 400 kts 318°
2026-04-27 03:51 32.64508 119.41884 25519 ft 400 kts 318°
2026-04-27 03:52 32.66758 119.39934 25514 ft 399 kts 318°
2026-04-27 03:52 32.68987 119.38000 25512 ft 400 kts 318°
2026-04-27 03:52 32.71246 119.36036 25513 ft 399 kts 318°
2026-04-27 03:52 32.73464 119.34106 25517 ft 399 kts 317°
2026-04-27 03:53 32.75724 119.32132 25515 ft 399 kts 317°
2026-04-27 03:53 32.77939 119.30193 25515 ft 399 kts 317°
2026-04-27 03:53 32.80167 119.28247 25513 ft 399 kts 317°
2026-04-27 03:53 32.82410 119.26291 25511 ft 398 kts 317°
2026-04-27 03:54 32.84633 119.24354 25509 ft 398 kts 317°
2026-04-27 03:54 32.86883 119.22393 25507 ft 399 kts 317°
2026-04-27 03:54 32.89109 119.20456 25508 ft 398 kts 317°
2026-04-27 03:54 32.91362 119.18490 25510 ft 399 kts 317°
2026-04-27 03:55 32.93597 119.16537 25507 ft 398 kts 317°
2026-04-27 03:55 32.95820 119.14606 25509 ft 397 kts 318°
2026-04-27 03:55 32.98047 119.12685 25508 ft 397 kts 317°
2026-04-27 03:55 33.00282 119.10760 25505 ft 399 kts 318°
2026-04-27 03:56 33.02535 119.08817 25503 ft 398 kts 318°
2026-04-27 03:56 33.04787 119.06879 25503 ft 398 kts 318°
2026-04-27 03:56 33.07034 119.04945 25500 ft 399 kts 318°
2026-04-27 03:56 33.09272 119.03014 25497 ft 398 kts 317°
2026-04-27 03:57 33.11528 119.01071 25490 ft 398 kts 318°
2026-04-27 03:57 33.13789 118.99133 25490 ft 399 kts 318°
2026-04-27 03:57 33.16030 118.97207 25487 ft 399 kts 317°
2026-04-27 03:57 33.18289 118.95255 25483 ft 399 kts 317°
2026-04-27 03:58 33.20519 118.93325 25481 ft 398 kts 317°
2026-04-27 03:58 33.22764 118.91367 25482 ft 398 kts 317°
2026-04-27 03:58 33.24999 118.89414 25483 ft 398 kts 317°
2026-04-27 03:58 33.27235 118.87459 25482 ft 399 kts 317°
2026-04-27 03:59 33.29454 118.85516 25481 ft 399 kts 317°
2026-04-27 03:59 33.31724 118.83543 25487 ft 398 kts 317°
2026-04-27 03:59 33.33937 118.81630 25484 ft 398 kts 317°
2026-04-27 03:59 33.36202 118.79668 25487 ft 397 kts 317°
2026-04-27 04:00 33.38440 118.77733 25488 ft 397 kts 317°
2026-04-27 04:00 33.40670 118.75802 25489 ft 397 kts 317°
2026-04-27 04:00 33.42919 118.73852 25489 ft 398 kts 319°
2026-04-27 04:00 33.45359 118.72258 25483 ft 409 kts 331°
2026-04-27 04:01 33.48141 118.71349 25492 ft 422 kts 344°
2026-04-27 04:01 33.51141 118.71214 25492 ft 435 kts 357°
2026-04-27 04:01 33.54133 118.71626 25500 ft 439 kts 359°
2026-04-27 04:01 33.57178 118.72129 25497 ft 440 kts
2026-04-27 04:02 33.60197 118.72637 25663 ft 441 kts 360°
2026-04-27 04:02 33.63271 118.73149 25918 ft 442 kts 359°
2026-04-27 04:02 33.66309 118.73646 26174 ft 444 kts 359°
2026-04-27 04:02 33.69393 118.74146 26422 ft 445 kts 359°
2026-04-27 04:03 33.72443 118.74635 26489 ft 446 kts 359°
2026-04-27 04:03 33.75511 118.75131 26496 ft 445 kts 359°
2026-04-27 04:03 33.78605 118.75630 26500 ft 446 kts 359°
2026-04-27 04:03 33.81700 118.76128 26504 ft 445 kts 359°
2026-04-27 04:04 33.84738 118.76617 26509 ft 444 kts 359°
2026-04-27 04:04 33.87817 118.77110 26506 ft 443 kts 359°
2026-04-27 04:04 33.90865 118.77590 26504 ft 443 kts 359°
2026-04-27 04:04 33.93944 118.78075 26507 ft 445 kts 359°
2026-04-27 04:05 33.96979 118.78558 26510 ft 445 kts 358°
2026-04-27 04:05 34.00081 118.79054 26507 ft 446 kts 358°
2026-04-27 04:05 34.03133 118.79543 26503 ft 445 kts 359°
2026-04-27 04:05 34.06214 118.80038 26503 ft 445 kts 359°
2026-04-27 04:06 34.09306 118.80533 26503 ft 446 kts 359°
2026-04-27 04:06 34.12395 118.81028 26507 ft 447 kts 358°
2026-04-27 04:06 34.15465 118.81520 26507 ft 446 kts 359°
2026-04-27 04:07 34.21612 118.82509 26503 ft 445 kts 358°
2026-04-27 04:07 34.24667 118.83002 26503 ft 446 kts 359°
2026-04-27 04:07 34.27743 118.83499 26496 ft 445 kts 358°
2026-04-27 04:07 34.30808 118.83997 26496 ft 444 kts 358°
2026-04-27 04:08 34.33862 118.84493 26495 ft 445 kts 358°
2026-04-27 04:08 34.36918 118.84990 26496 ft 444 kts 358°
2026-04-27 04:08 34.40001 118.85488 26494 ft 444 kts 358°
2026-04-27 04:08 34.43060 118.85987 26496 ft 443 kts 358°
2026-04-27 04:09 34.46127 118.86489 26495 ft 443 kts 358°
2026-04-27 04:09 34.49162 118.86984 26492 ft 444 kts 358°
2026-04-27 04:09 34.52215 118.87482 26487 ft 444 kts 358°
2026-04-27 04:09 34.55294 118.87997 26488 ft 446 kts
2026-04-27 04:10 34.58340 118.88986 26481 ft 460 kts 12°
2026-04-27 04:10 34.61219 118.90689 26479 ft 466 kts 24°
2026-04-27 04:10 34.63831 118.93008 26488 ft 463 kts 31°
2026-04-27 04:10 34.66291 118.95481 26490 ft 459 kts 32°
2026-04-27 04:11 34.68741 118.97990 26491 ft 457 kts 32°
2026-04-27 04:11 34.71159 119.00458 26490 ft 456 kts 32°
2026-04-27 04:11 34.73602 119.02935 26489 ft 456 kts 31°
2026-04-27 04:11 34.76038 119.05395 26490 ft 456 kts 31°
2026-04-27 04:12 34.78474 119.07847 26483 ft 456 kts 31°
2026-04-27 04:12 34.80912 119.10297 26488 ft 456 kts 31°
2026-04-27 04:12 34.83373 119.12764 26488 ft 457 kts 31°
2026-04-27 04:12 34.85805 119.15208 26489 ft 456 kts 31°
2026-04-27 04:13 34.88240 119.17657 26489 ft 456 kts 31°
2026-04-27 04:13 34.90686 119.20118 26486 ft 456 kts 31°
2026-04-27 04:13 34.93145 119.22593 26487 ft 456 kts 30°
2026-04-27 04:13 34.95589 119.25056 26482 ft 456 kts 31°
2026-04-27 04:14 34.98037 119.27525 26487 ft 456 kts 30°
2026-04-27 04:14 35.00454 119.29964 26483 ft 456 kts 31°
2026-04-27 04:14 35.02923 119.32455 26490 ft 456 kts 31°
2026-04-27 04:14 35.05364 119.34924 26487 ft 456 kts 31°
2026-04-27 04:15 35.07812 119.37410 26487 ft 456 kts 30°
2026-04-27 04:15 35.10262 119.39889 26487 ft 456 kts 31°
2026-04-27 04:15 35.12701 119.42349 26486 ft 456 kts 31°
2026-04-27 04:15 35.15125 119.44797 26488 ft 456 kts 30°
2026-04-27 04:16 35.17591 119.47298 26483 ft 455 kts 30°
2026-04-27 04:16 35.20010 119.49747 26484 ft 456 kts 31°
2026-04-27 04:16 35.22458 119.52233 26488 ft 456 kts 31°
2026-04-27 04:16 35.24876 119.54701 26487 ft 455 kts 30°
2026-04-27 04:17 35.27323 119.57195 26484 ft 456 kts 30°
2026-04-27 04:17 35.29742 119.59663 26485 ft 456 kts 30°
2026-04-27 04:17 35.32166 119.62140 26485 ft 455 kts 30°
2026-04-27 04:17 35.34583 119.64611 26480 ft 455 kts 30°
2026-04-27 04:18 35.37054 119.67149 26478 ft 456 kts 31°
2026-04-27 04:18 35.39459 119.69633 26487 ft 455 kts 31°
2026-04-27 04:18 35.41902 119.72146 26483 ft 456 kts 31°
2026-04-27 04:18 35.44310 119.74621 26480 ft 455 kts 31°
2026-04-27 04:19 35.46730 119.77067 26483 ft 455 kts 30°
2026-04-27 04:19 35.49191 119.79532 26478 ft 455 kts 30°
2026-04-27 04:19 35.51620 119.81970 26479 ft 455 kts 30°
2026-04-27 04:19 35.54092 119.84458 26485 ft 455 kts 30°
2026-04-27 04:20 35.56519 119.86906 26479 ft 455 kts 30°
2026-04-27 04:20 35.58974 119.89391 26484 ft 455 kts 30°
2026-04-27 04:20 35.61405 119.91851 26479 ft 455 kts 30°
2026-04-27 04:20 35.63836 119.94305 26480 ft 455 kts 30°
2026-04-27 04:21 35.66294 119.96795 26484 ft 455 kts 30°
2026-04-27 04:21 35.68708 119.99248 26491 ft 454 kts 30°
2026-04-27 04:21 35.71144 120.01717 26487 ft 455 kts 30°
2026-04-27 04:21 35.73586 120.04199 26491 ft 454 kts 30°
2026-04-27 04:22 35.76037 120.06696 26478 ft 454 kts 30°
2026-04-27 04:22 35.78454 120.09153 26478 ft 454 kts 30°
2026-04-27 04:22 35.80893 120.11638 26479 ft 454 kts 30°
2026-04-27 04:22 35.83341 120.14131 26470 ft 454 kts 30°
2026-04-27 04:23 35.85746 120.16585 26469 ft 454 kts 30°
2026-04-27 04:23 35.88200 120.19097 26469 ft 455 kts 30°
2026-04-27 04:23 35.90625 120.21582 26471 ft 454 kts 30°
2026-04-27 04:23 35.93044 120.24056 26468 ft 455 kts 30°
2026-04-27 04:24 35.95460 120.26533 26472 ft 455 kts 30°
2026-04-27 04:24 35.97827 120.29140 26473 ft 457 kts 34°
2026-04-27 04:24 36.00072 120.31953 26472 ft 458 kts 38°
2026-04-27 04:24 36.02197 120.34856 26463 ft 458 kts 39°
2026-04-27 04:25 36.04316 120.37826 26472 ft 458 kts 39°
2026-04-27 04:25 36.06409 120.40752 26469 ft 456 kts 39°
2026-04-27 04:25 36.08558 120.43726 26476 ft 457 kts 39°
2026-04-27 04:25 36.10800 120.46394 26449 ft 440 kts 23°
2026-04-27 04:26 36.13490 120.47995 26458 ft 422 kts
2026-04-27 04:26 36.16342 120.48464 26484 ft 415 kts 350°
2026-04-27 04:26 36.19257 120.48553 26469 ft 421 kts 349°
2026-04-27 04:26 36.22210 120.48660 26475 ft 424 kts 350°
2026-04-27 04:27 36.25196 120.48797 26473 ft 426 kts 350°
2026-04-27 04:27 36.28178 120.48955 26475 ft 427 kts 351°
2026-04-27 04:27 36.31113 120.49122 26477 ft 425 kts 351°
2026-04-27 04:27 36.34050 120.49300 26469 ft 427 kts 352°
2026-04-27 04:28 36.37068 120.49726 26471 ft 436 kts 358°
2026-04-27 04:28 36.40016 120.50532 26465 ft 443 kts
2026-04-27 04:28 36.43024 120.51752 26470 ft 451 kts
2026-04-27 04:28 36.45957 120.53125 26476 ft 452 kts
2026-04-27 04:29 36.48895 120.54507 26468 ft 449 kts
2026-04-27 04:29 36.51842 120.55627 26467 ft 442 kts
2026-04-27 04:29 36.54841 120.56460 26463 ft 435 kts 358°
2026-04-27 04:29 36.57790 120.57031 26463 ft 430 kts 356°
2026-04-27 04:30 36.60753 120.57542 26479 ft 431 kts 355°
2026-04-27 04:30 36.63734 120.58044 26465 ft 431 kts 355°
2026-04-27 04:30 36.66701 120.58547 26464 ft 430 kts 355°
2026-04-27 04:30 36.69686 120.59059 26468 ft 430 kts 355°
2026-04-27 04:31 36.72664 120.59572 26459 ft 431 kts 355°
2026-04-27 04:31 36.75646 120.60085 26463 ft 431 kts 355°
2026-04-27 04:31 36.78611 120.60602 26465 ft 432 kts 355°
2026-04-27 04:31 36.81601 120.61124 26474 ft 433 kts 355°
2026-04-27 04:32 36.84572 120.61647 26476 ft 433 kts 355°
2026-04-27 04:32 36.87529 120.62164 26466 ft 430 kts 355°
2026-04-27 04:32 36.90521 120.62688 26481 ft 431 kts 355°
2026-04-27 04:32 36.93461 120.63204 26483 ft 430 kts 355°
2026-04-27 04:33 36.96455 120.63742 26478 ft 429 kts 355°
2026-04-27 04:33 36.99399 120.64283 26477 ft 429 kts 355°
2026-04-27 04:33 37.02349 120.64830 26476 ft 429 kts 355°
2026-04-27 04:33 37.05325 120.65385 26474 ft 430 kts 356°
2026-04-27 04:34 37.08276 120.65951 26474 ft 431 kts 356°
2026-04-27 04:34 37.11240 120.66516 26482 ft 431 kts 356°
2026-04-27 04:34 37.14222 120.67084 26482 ft 432 kts 356°
2026-04-27 04:34 37.17179 120.67642 26479 ft 434 kts 356°
2026-04-27 04:35 37.20150 120.68201 26482 ft 432 kts 356°
2026-04-27 04:35 37.23161 120.68767 26479 ft 432 kts 356°
2026-04-27 04:35 37.26098 120.69320 26476 ft 431 kts 356°
2026-04-27 04:35 37.29081 120.69882 26481 ft 431 kts 356°
2026-04-27 04:36 37.32057 120.70440 26478 ft 431 kts 356°
2026-04-27 04:36 37.35035 120.71000 26479 ft 431 kts 356°
2026-04-27 04:36 37.37961 120.71554 26480 ft 431 kts 356°
2026-04-27 04:36 37.40939 120.72112 26477 ft 432 kts 356°
2026-04-27 04:37 37.43916 120.72673 26476 ft 431 kts 356°
2026-04-27 04:37 37.46901 120.73238 26477 ft 432 kts 356°
2026-04-27 04:37 37.49875 120.73801 26465 ft 432 kts 356°
2026-04-27 04:37 37.52817 120.74359 26462 ft 432 kts 356°
2026-04-27 04:38 37.55805 120.74925 26463 ft 431 kts 356°
2026-04-27 04:38 37.58754 120.75451 26456 ft 428 kts 354°
2026-04-27 04:38 37.61726 120.75839 26264 ft 428 kts 353°
2026-04-27 04:38 37.64705 120.76194 26020 ft 423 kts 353°
2026-04-27 04:39 37.67612 120.76534 25779 ft 420 kts 353°
2026-04-27 04:39 37.70495 120.76873 25540 ft 417 kts 353°
2026-04-27 04:39 37.73410 120.77218 25227 ft 417 kts 353°
2026-04-27 04:39 37.76298 120.77557 24759 ft 417 kts 354°
2026-04-27 04:40 37.79163 120.77898 24324 ft 411 kts 354°
2026-04-27 04:40 37.81987 120.78239 23900 ft 406 kts 354°
2026-04-27 04:40 37.84777 120.78577 23452 ft 402 kts 354°
2026-04-27 04:40 37.87541 120.78911 22975 ft 399 kts 354°
2026-04-27 04:41 37.90303 120.79245 22518 ft 396 kts 355°
2026-04-27 04:41 37.93049 120.79576 22036 ft 393 kts 354°
2026-04-27 04:41 37.95766 120.79901 21558 ft 389 kts 355°
2026-04-27 04:41 37.98425 120.80304 21120 ft 393 kts
2026-04-27 04:42 38.01091 120.81207 20607 ft 404 kts 10°
2026-04-27 04:42 38.03698 120.82701 20111 ft 412 kts 19°
2026-04-27 04:42 38.06188 120.84523 19634 ft 412 kts 22°
2026-04-27 04:42 38.08614 120.86384 19145 ft 411 kts 23°
2026-04-27 04:43 38.11047 120.88254 18661 ft 409 kts 23°
2026-04-27 04:43 38.13485 120.90110 18162 ft 407 kts 23°
2026-04-27 04:43 38.15915 120.91948 17660 ft 404 kts 23°
2026-04-27 04:43 38.18331 120.93771 17164 ft 402 kts 23°
2026-04-27 04:44 38.20713 120.95564 16691 ft 400 kts 23°
2026-04-27 04:44 38.23098 120.97415 16190 ft 401 kts 29°
2026-04-27 04:44 38.25149 120.99843 15701 ft 410 kts 46°
2026-04-27 04:44 38.26636 121.02924 15302 ft 413 kts 61°
2026-04-27 04:45 38.27808 121.06255 14808 ft 412 kts 64°
2026-04-27 04:45 38.28921 121.09615 14291 ft 411 kts 65°
2026-04-27 04:45 38.30014 121.12911 13792 ft 409 kts 64°
2026-04-27 04:45 38.31133 121.16231 13294 ft 406 kts 64°
2026-04-27 04:46 38.32258 121.19519 12799 ft 403 kts 64°
2026-04-27 04:46 38.33378 121.22774 12307 ft 400 kts 64°
2026-04-27 04:46 38.34480 121.25964 11828 ft 397 kts 64°
2026-04-27 04:46 38.35592 121.29188 11351 ft 393 kts 64°
2026-04-27 04:47 38.36676 121.32333 10882 ft 390 kts 64°
2026-04-27 04:47 38.37775 121.35523 10409 ft 387 kts 64°
2026-04-27 04:47 38.38824 121.38570 10246 ft 373 kts 65°
2026-04-27 04:47 38.39849 121.41551 10134 ft 358 kts 64°
2026-04-27 04:48 38.40868 121.44401 10035 ft 343 kts 58°
2026-04-27 04:48 38.42285 121.46691 9945 ft 323 kts 37°
2026-04-27 04:48 38.44070 121.48349 9601 ft 316 kts 28°
2026-04-27 04:48 38.45947 121.49834 9216 ft 314 kts 26°
2026-04-27 04:49 38.47796 121.51280 8866 ft 311 kts 27°
2026-04-27 04:49 38.49625 121.52743 8536 ft 308 kts 27°
2026-04-27 04:49 38.51427 121.54212 8201 ft 304 kts 28°
2026-04-27 04:49 38.53191 121.55670 7862 ft 301 kts 28°
2026-04-27 04:50 38.54949 121.57132 7536 ft 298 kts 28°
2026-04-27 04:50 38.56673 121.58563 7225 ft 294 kts 29°
2026-04-27 04:50 38.58356 121.59963 6915 ft 291 kts 29°
2026-04-27 04:50 38.60069 121.61301 6631 ft 285 kts 24°
2026-04-27 04:51 38.61833 121.62419 6341 ft 280 kts 21°
2026-04-27 04:51 38.63597 121.63461 6028 ft 278 kts 20°
2026-04-27 04:51 38.65346 121.64484 5727 ft 274 kts 21°
2026-04-27 04:51 38.67065 121.65496 5444 ft 271 kts 21°
2026-04-27 04:52 38.68767 121.66512 5150 ft 268 kts 22°
2026-04-27 04:52 38.70442 121.67512 4866 ft 264 kts 22°
2026-04-27 04:52 38.72080 121.68488 4590 ft 260 kts 23°
2026-04-27 04:52 38.73709 121.69453 4328 ft 257 kts 23°
2026-04-27 04:53 38.75325 121.70415 4050 ft 253 kts 24°
2026-04-27 04:53 38.76915 121.71363 3788 ft 250 kts 24°
2026-04-27 04:53 38.78492 121.72301 3529 ft 248 kts 24°
2026-04-27 04:53 38.80041 121.73222 3281 ft 243 kts 24°
2026-04-27 04:54 38.81556 121.74123 3109 ft 235 kts 24°
2026-04-27 04:54 38.83000 121.74983 2959 ft 226 kts 24°
2026-04-27 04:54 38.84387 121.75809 2932 ft 211 kts 24°
2026-04-27 04:54 38.85712 121.76469 2934 ft 194 kts 13°
2026-04-27 04:55 38.86971 121.76749 2978 ft 185 kts
2026-04-27 04:55 38.88255 121.76917 2730 ft 183 kts
2026-04-27 04:55 38.89521 121.77068 2472 ft 181 kts
2026-04-27 04:55 38.90770 121.77220 2207 ft 178 kts
2026-04-27 04:56 38.92002 121.77375 1975 ft 176 kts
2026-04-27 04:56 38.93237 121.77388 1923 ft 178 kts 348°
2026-04-27 04:56 38.94306 121.76615 1922 ft 183 kts 315°
2026-04-27 04:56 38.94861 121.75141 1932 ft 187 kts 287°
2026-04-27 04:57 38.95082 121.73444 2020 ft 200 kts 279°
2026-04-27 04:57 38.95220 121.71673 2718 ft 203 kts 277°
2026-04-27 04:57 38.95347 121.69854 3043 ft 205 kts 277°
2026-04-27 04:57 38.95466 121.68049 2965 ft 201 kts 278°
2026-04-27 04:58 38.95904 121.66370 2935 ft 198 kts 304°
2026-04-27 04:58 38.96822 121.65057 2946 ft 199 kts 318°
2026-04-27 04:58 38.97918 121.63989 2936 ft 198 kts 337°
2026-04-27 04:58 38.99261 121.63538 3165 ft 199 kts 349°
2026-04-27 04:59 39.00639 121.63302 3406 ft 200 kts 360°
2026-04-27 04:59 39.01945 121.63868 3624 ft 204 kts 37°
2026-04-27 04:59 39.02741 121.65384 3803 ft 208 kts 74°
2026-04-27 04:59 39.02880 121.67236 3848 ft 210 kts 89°
2026-04-27 05:00 39.02853 121.69115 3850 ft 210 kts 91°
2026-04-27 05:00 39.02796 121.70982 3840 ft 210 kts 91°
2026-04-27 05:00 39.02736 121.72868 3832 ft 207 kts 91°
2026-04-27 05:00 39.02678 121.74644 3850 ft 196 kts 91°
2026-04-27 05:01 39.02620 121.76392 3851 ft 195 kts 94°
2026-04-27 05:01 39.02193 121.78033 3821 ft 195 kts 128°
2026-04-27 05:01 39.01084 121.78962 3829 ft 193 kts 167°
2026-04-27 05:01 38.99750 121.79147 3846 ft 193 kts 179°
2026-04-27 05:02 38.98396 121.79184 3695 ft 194 kts 180°
2026-04-27 05:02 38.97066 121.79080 3421 ft 192 kts 197°
2026-04-27 05:02 38.95267 121.76721 2928 ft 188 kts 249°
2026-04-27 05:03 38.94995 121.75109 2688 ft 187 kts 268°
2026-04-27 05:03 38.95019 121.73431 2431 ft 186 kts 277°
2026-04-27 05:03 38.95163 121.71783 2185 ft 186 kts 279°
2026-04-27 05:03 38.95317 121.70139 1975 ft 185 kts 280°
2026-04-27 05:04 38.95454 121.68508 1944 ft 180 kts 279°
2026-04-27 05:04 38.95567 121.66995 1890 ft 159 kts 279°
2026-04-27 05:04 38.95668 121.65617 1683 ft 148 kts 279°
2026-04-27 05:04 38.95765 121.64336 1475 ft 140 kts 279°
2026-04-27 05:05 38.95860 121.63101 1296 ft 140 kts 280°
2026-04-27 05:05 38.95955 121.61852 1119 ft 139 kts 280°
2026-04-27 05:05 38.96050 121.60613 932 ft 140 kts 280°
2026-04-27 05:05 38.96141 121.59397 739 ft 137 kts 280°
2026-04-27 05:06 38.96230 121.58167 562 ft 138 kts 280°
2026-04-27 05:06 38.96327 121.56935 400 ft 135 kts 280°
2026-04-27 05:06 38.96421 121.55742 209 ft 134 kts 280°
2026-04-27 05:06 38.96513 121.54481 411 ft 152 kts 280°
2026-04-27 05:07 38.96605 121.53163 1162 ft 149 kts 280°
2026-04-27 05:07 38.96692 121.51917 1853 ft 138 kts 281°
2026-04-27 05:07 38.96792 121.50620 2099 ft 154 kts 280°
2026-04-27 05:07 38.96910 121.49184 2361 ft 172 kts 279°
2026-04-27 05:08 38.97034 121.47583 2722 ft 188 kts 278°
2026-04-27 05:08 38.97170 121.45847 2928 ft 199 kts 281°
2026-04-27 05:08 38.97719 121.44263 2922 ft 195 kts 315°
2026-04-27 05:08 38.98906 121.43464 2922 ft 194 kts 354°
2026-04-27 05:09 39.00182 121.43798 2926 ft 195 kts 31°
2026-04-27 05:09 39.01033 121.45163 2941 ft 198 kts 70°
2026-04-27 05:09 39.01017 121.46923 2919 ft 203 kts 108°
2026-04-27 05:09 39.00366 121.48547 2943 ft 206 kts 120°
2026-04-27 05:10 38.99586 121.50137 2939 ft 208 kts 121°
2026-04-27 05:10 38.98798 121.51695 2939 ft 207 kts 122°
2026-04-27 05:10 38.98022 121.53236 2935 ft 206 kts 122°
2026-04-27 05:10 38.97237 121.54796 2937 ft 207 kts 122°
2026-04-27 05:11 38.96461 121.56346 2933 ft 207 kts 121°
2026-04-27 05:11 38.95684 121.57894 2934 ft 207 kts 122°
2026-04-27 05:11 38.94907 121.59443 2932 ft 206 kts 122°
2026-04-27 05:11 38.94123 121.61005 2939 ft 206 kts 122°
2026-04-27 05:12 38.93348 121.62543 2931 ft 206 kts 121°
2026-04-27 05:12 38.92568 121.64085 2933 ft 206 kts 121°
2026-04-27 05:12 38.91787 121.65623 2935 ft 207 kts 121°
2026-04-27 05:12 38.91013 121.67143 2952 ft 197 kts 121°
2026-04-27 05:13 38.90275 121.68592 2934 ft 193 kts 120°
2026-04-27 05:13 38.89757 121.70166 2939 ft 192 kts 104°
2026-04-27 05:13 38.89462 121.71845 2929 ft 191 kts 89°
2026-04-27 05:13 38.89830 121.73424 2796 ft 185 kts 51°
2026-04-27 05:14 38.90845 121.74307 2555 ft 177 kts 14°
2026-04-27 05:14 38.92065 121.74503 2330 ft 176 kts
2026-04-27 05:14 38.93238 121.74213 2103 ft 177 kts 331°
2026-04-27 05:14 38.94068 121.73023 1969 ft 181 kts 306°
2026-04-27 05:15 38.94683 121.71622 1948 ft 181 kts 299°
2026-04-27 05:15 38.95123 121.70112 1919 ft 173 kts 288°
2026-04-27 05:15 38.95347 121.68708 1909 ft 153 kts 284°
2026-04-27 05:15 38.95502 121.67406 1908 ft 142 kts 282°
2026-04-27 05:16 38.95619 121.66152 1765 ft 140 kts 281°
2026-04-27 05:16 38.95719 121.64911 1577 ft 141 kts 281°
2026-04-27 05:16 38.95815 121.63660 1391 ft 139 kts 281°
2026-04-27 05:16 38.95907 121.62435 1199 ft 140 kts 280°
2026-04-27 05:17 38.96003 121.61185 1013 ft 140 kts 280°
2026-04-27 05:17 38.96099 121.59930 838 ft 139 kts 280°
2026-04-27 05:17 38.96190 121.58723 628 ft 138 kts 280°
2026-04-27 05:17 38.96285 121.57481 468 ft 137 kts 280°
2026-04-27 05:18 38.96376 121.56287 292 ft 134 kts 281°
2026-04-27 05:18 38.96472 121.55086 147 ft 132 kts 279°
2026-04-27 05:18 38.96569 121.53814 415 ft 153 kts 280°
2026-04-27 05:18 38.96660 121.52507 1128 ft 146 kts 280°
2026-04-27 05:19 38.96749 121.51231 1622 ft 145 kts 281°
2026-04-27 05:19 38.96851 121.49883 1904 ft 158 kts 281°
2026-04-27 05:19 38.96977 121.48412 2178 ft 174 kts 282°
2026-04-27 05:19 38.97395 121.46926 2491 ft 185 kts 312°
2026-04-27 05:20 38.98496 121.46059 2865 ft 191 kts 348°
2026-04-27 05:20 38.99801 121.46259 2956 ft 194 kts 26°
2026-04-27 05:20 39.00732 121.47515 2943 ft 198 kts 65°
2026-04-27 05:20 39.00833 121.49269 2947 ft 204 kts 104°
2026-04-27 05:21 39.00220 121.50935 2980 ft 208 kts 119°
2026-04-27 05:21 38.99377 121.52455 2977 ft 208 kts 129°
2026-04-27 05:21 38.98420 121.53853 2976 ft 207 kts 131°
2026-04-27 05:21 38.97448 121.55222 2975 ft 209 kts 131°
2026-04-27 05:22 38.96454 121.56601 2974 ft 209 kts 131°
2026-04-27 05:22 38.95467 121.57965 2973 ft 209 kts 131°
2026-04-27 05:22 38.95027 121.58573 2975 ft 209 kts 132°